| time (UTC) | temp C | wind direction | speed KPH | gust KPH | rain 1hr cm | rain 24hr cm | rain mn cm | humidity % | barometer mb |
| 20260831054504 | 25 | 97 | 4.8 | 11.3 | 0.00 | 0.00 | 0.00 | 36 | 1027.4 |
| 20260831053604 | 25 | 82 | 6.4 | 12.9 | 0.00 | 0.00 | 0.00 | 38 | 1027.5 |
| 20260831052703 | 25 | 91 | 4.8 | 12.9 | 0.00 | 0.00 | 0.00 | 38 | 1027.5 |
| 20260831051803 | 25 | 83 | 3.2 | 11.3 | 0.00 | 0.00 | 0.00 | 39 | 1027.4 |
| 20260831051119 | 25 | 65 | 4.8 | 12.9 | 0.00 | 0.00 | 0.00 | 41 | 1027.5 |
| 20260831050004 | 25 | 74 | 6.4 | 12.9 | 0.00 | 0.00 | 0.00 | 40 | 1027.7 |
| 20260831045403 | 25 | 87 | 6.4 | 12.9 | 0.00 | 0.00 | 0.00 | 39 | 1027.7 |
| 20260831044504 | 25 | 95 | 6.4 | 16.1 | 0.00 | 0.00 | 0.00 | 38 | 1027.8 |
| 20260831043605 | 25 | 79 | 4.8 | 12.9 | 0.00 | 0.00 | 0.00 | 39 | 1027.7 |
| 20260831042920 | 25 | 71 | 4.8 | 12.9 | 0.00 | 0.00 | 0.00 | 39 | 1028.0 |
| 20260831041803 | 24 | 76 | 4.8 | 14.5 | 0.00 | 0.00 | 0.00 | 43 | 1028.0 |
| 20260831040903 | 24 | 76 | 6.4 | 14.5 | 0.00 | 0.00 | 0.00 | 43 | 1028.0 |
| 20260831040004 | 23 | 88 | 4.8 | 16.1 | 0.00 | 0.00 | 0.00 | 43 | 1027.9 |
| 20260831035403 | 23 | 80 | 3.2 | 12.9 | 0.00 | 0.00 | 0.00 | 45 | 1028.1 |
| 20260831034716 | 23 | 94 | 6.4 | 16.1 | 0.00 | 0.00 | 0.00 | 47 | 1028.2 |
| 20260831033604 | 22 | 110 | 4.8 | 12.9 | 0.00 | 0.00 | 0.00 | 50 | 1028.2 |
| 20260831032919 | 22 | 95 | 8.0 | 14.5 | 0.00 | 0.00 | 0.00 | 49 | 1028.2 |
| 20260831031803 | 22 | 101 | 3.2 | 9.7 | 0.00 | 0.00 | 0.00 | 50 | 1028.5 |
| 20260831030904 | 22 | 85 | 4.8 | 9.7 | 0.00 | 0.00 | 0.00 | 48 | 1028.7 |
| 20260831030005 | 22 | 101 | 6.4 | 12.9 | 0.00 | 0.00 | 0.00 | 51 | 1028.8 |
| 20260831025617 | 22 | 106 | 4.8 | 12.9 | 0.00 | 0.00 | 0.00 | 53 | 1028.8 |
| 20260831024503 | 22 | 83 | 4.8 | 12.9 | 0.00 | 0.00 | 0.00 | 53 | 1029.0 |
| 20260831023820 | 21 | 97 | 4.8 | 11.3 | 0.00 | 0.00 | 0.00 | 54 | 1029.0 |
| 20260831022704 | 21 | 102 | 4.8 | 9.7 | 0.00 | 0.00 | 0.00 | 55 | 1029.1 |
| 20260831021805 | 21 | 72 | 3.2 | 9.7 | 0.00 | 0.00 | 0.00 | 57 | 1029.4 |
| 20260831020903 | 21 | 67 | 3.2 | 9.7 | 0.00 | 0.00 | 0.00 | 58 | 1029.6 |
| 20260831020005 | 20 | 90 | 3.2 | 9.7 | 0.00 | 0.00 | 0.00 | 60 | 1029.8 |
| 20260831015403 | 20 | 83 | 3.2 | 9.7 | 0.00 | 0.00 | 0.00 | 61 | 1029.9 |
| 20260831014504 | 19 | 130 | 3.2 | 11.3 | 0.00 | 0.00 | 0.00 | 61 | 1030.0 |
| 20260831013603 | 18 | 134 | 4.8 | 11.3 | 0.00 | 0.00 | 0.00 | 62 | 1030.3 |
| 20260831012704 | 18 | 182 | 3.2 | 6.4 | 0.00 | 0.00 | 0.00 | 63 | 1030.5 |
| 20260831011803 | 18 | 175 | 1.6 | 8.0 | 0.00 | 0.00 | 0.00 | 63 | 1030.7 |
| 20260831010903 | 18 | 177 | 3.2 | 8.0 | 0.00 | 0.00 | 0.00 | 64 | 1030.9 |
| 20260831010004 | 18 | 179 | 3.2 | 8.0 | 0.00 | 0.00 | 0.00 | 64 | 1031.0 |
| 20260831005616 | 18 | 176 | 1.6 | 8.0 | 0.00 | 0.00 | 0.00 | 64 | 1031.0 |
| 20260831004506 | 18 | 84 | 3.2 | 9.7 | 0.00 | 0.00 | 0.00 | 66 | 1031.0 |
| 20260831003603 | 17 | 80 | 3.2 | 8.0 | 0.00 | 0.00 | 0.00 | 68 | 1031.1 |
| 20260831002704 | 17 | 87 | 3.2 | 11.3 | 0.00 | 0.00 | 0.00 | 69 | 1031.0 |
| 20260831002018 | 16 | 99 | 4.8 | 11.3 | 0.00 | 0.00 | 0.00 | 70 | 1031.1 |
| 20260831000903 | 16 | 125 | 4.8 | 11.3 | 0.00 | 0.00 | 0.00 | 70 | 1031.0 |
| 20260831000003 | 16 | 109 | 3.2 | 11.3 | 0.00 | 0.00 | 0.00 | 69 | 1031.1 |
| 20260830235403 | 16 | 89 | 3.2 | 6.4 | 0.00 | 0.00 | 0.00 | 70 | 1031.1 |
| 20260830234504 | 15 | 92 | 3.2 | 6.4 | 0.00 | 0.00 | 0.00 | 71 | 1031.2 |
| 20260830233818 | 15 | 93 | 3.2 | 9.7 | 0.00 | 0.00 | 0.00 | 71 | 1031.3 |
| 20260830232703 | 15 | 85 | 4.8 | 11.3 | 0.00 | 0.00 | 0.00 | 73 | 1031.3 |
| 20260830231803 | 14 | 83 | 3.2 | 6.4 | 0.00 | 0.00 | 0.00 | 74 | 1031.5 |
| 20260830230903 | 13 | 81 | 4.8 | 8.0 | 0.00 | 0.00 | 0.00 | 76 | 1031.4 |
| 20260830230004 | 13 | 75 | 3.2 | 8.0 | 0.00 | 0.00 | 0.00 | 78 | 1031.5 |
| 20260830225404 | 12 | 69 | 3.2 | 6.4 | 0.00 | 0.00 | 0.00 | 79 | 1031.5 |
| 20260830224503 | 12 | 63 | 3.2 | 4.8 | 0.00 | 0.00 | 0.00 | 79 | 1031.5 |
| 20260830223604 | 12 | 63 | 1.6 | 6.4 | 0.00 | 0.00 | 0.00 | 82 | 1031.4 |
| 20260830222703 | 11 | 63 | 0.0 | 4.8 | 0.00 | 0.00 | 0.00 | 85 | 1031.5 |
| 20260830221803 | 11 | 63 | 0.0 | 1.6 | 0.00 | 0.00 | 0.00 | 86 | 1031.5 |
| 20260830220903 | 10 | 60 | 0.0 | 3.2 | 0.00 | 0.00 | 0.00 | 88 | 1031.5 |
| 20260830220004 | 10 | 57 | 0.0 | 1.6 | 0.00 | 0.00 | 0.00 | 90 | 1031.3 |
| 20260830215619 | 9 | 0 | 0.0 | 0.0 | 0.00 | 0.00 | 0.00 | 90 | 1031.2 |
| 20260830214503 | 8 | 0 | 0.0 | 0.0 | 0.00 | 0.00 | 0.00 | 92 | 1031.2 |
| 20260830213603 | 7 | 0 | 0.0 | 0.0 | 0.00 | 0.00 | 0.00 | 92 | 1031.2 |
| 20260830212703 | 7 | 0 | 0.0 | 0.0 | 0.00 | 0.00 | 0.00 | 93 | 1031.1 |
| 20260830211803 | 7 | 0 | 0.0 | 0.0 | 0.00 | 0.00 | 0.00 | 93 | 1031.0 |
| 20260830210903 | 6 | 57 | 0.0 | 3.2 | 0.00 | 0.00 | 0.00 | 93 | 1031.0 |
| 20260830210219 | 6 | 57 | 0.0 | 3.2 | 0.00 | 0.00 | 0.00 | 93 | 1030.9 |
| 20260830205403 | 6 | 57 | 0.0 | 3.2 | 0.00 | 0.00 | 0.00 | 92 | 1030.9 |
| 20260830204503 | 6 | 0 | 0.0 | 0.0 | 0.00 | 0.00 | 0.00 | 92 | 1030.6 |
| 20260830203603 | 6 | 0 | 0.0 | 0.0 | 0.00 | 0.00 | 0.00 | 92 | 1030.6 |
| 20260830202917 | 6 | 0 | 0.0 | 0.0 | 0.00 | 0.00 | 0.00 | 92 | 1030.5 |
| 20260830202016 | 6 | 0 | 0.0 | 0.0 | 0.00 | 0.00 | 0.00 | 91 | 1030.5 |
| 20260830200903 | 6 | 0 | 0.0 | 0.0 | 0.00 | 0.00 | 0.00 | 91 | 1030.4 |
| 20260830200219 | 7 | 0 | 0.0 | 0.0 | 0.00 | 0.00 | 0.00 | 92 | 1030.2 |
| 20260830195403 | 7 | 0 | 0.0 | 0.0 | 0.00 | 0.00 | 0.00 | 93 | 1030.1 |
| 20260830194503 | 6 | 0 | 0.0 | 0.0 | 0.00 | 0.00 | 0.00 | 92 | 1030.0 |
| 20260830193603 | 6 | 0 | 0.0 | 0.0 | 0.00 | 0.00 | 0.00 | 91 | 1029.7 |
| 20260830192703 | 6 | 0 | 0.0 | 0.0 | 0.00 | 0.00 | 0.00 | 91 | 1029.7 |
| 20260830192020 | 6 | 0 | 0.0 | 0.0 | 0.00 | 0.00 | 0.00 | 91 | 1029.8 |
| 20260830190903 | 7 | 0 | 0.0 | 0.0 | 0.00 | 0.00 | 0.00 | 92 | 1029.8 |
| 20260830190218 | 7 | 0 | 0.0 | 0.0 | 0.00 | 0.00 | 0.00 | 92 | 1029.8 |
| 20260830185404 | 7 | 56 | 0.0 | 4.8 | 0.00 | 0.00 | 0.00 | 93 | 1029.7 |
| 20260830184503 | 6 | 0 | 0.0 | 0.0 | 0.00 | 0.00 | 0.00 | 92 | 1029.8 |
| 20260830183605 | 6 | 0 | 0.0 | 0.0 | 0.00 | 0.00 | 0.00 | 91 | 1029.8 |
| 20260830182703 | 7 | 0 | 0.0 | 0.0 | 0.00 | 0.00 | 0.00 | 91 | 1029.9 |
| 20260830181803 | 7 | 0 | 0.0 | 0.0 | 0.00 | 0.00 | 0.00 | 91 | 1030.0 |
| 20260830180903 | 7 | 0 | 0.0 | 0.0 | 0.00 | 0.00 | 0.00 | 91 | 1030.0 |
| 20260830180003 | 7 | 0 | 0.0 | 0.0 | 0.00 | 0.00 | 0.00 | 91 | 1030.0 |
| 20260830175403 | 7 | 0 | 0.0 | 0.0 | 0.00 | 0.00 | 0.00 | 92 | 1030.0 |
| 20260830174717 | 7 | 0 | 0.0 | 0.0 | 0.00 | 0.00 | 0.00 | 91 | 1030.1 |
| 20260830173603 | 7 | 0 | 0.0 | 0.0 | 0.00 | 0.00 | 0.00 | 90 | 1030.2 |
| 20260830172704 | 7 | 0 | 0.0 | 0.0 | 0.00 | 0.00 | 0.00 | 90 | 1030.3 |
| 20260830171804 | 7 | 0 | 0.0 | 0.0 | 0.00 | 0.00 | 0.00 | 90 | 1030.3 |
| 20260830171118 | 7 | 0 | 0.0 | 0.0 | 0.00 | 0.00 | 0.00 | 90 | 1030.3 |
| 20260830170003 | 7 | 0 | 0.0 | 0.0 | 0.00 | 0.00 | 0.00 | 90 | 1030.4 |
| 20260830165403 | 7 | 0 | 0.0 | 0.0 | 0.00 | 0.00 | 0.00 | 90 | 1030.4 |
| 20260830164505 | 7 | 0 | 0.0 | 0.0 | 0.00 | 0.00 | 0.00 | 90 | 1030.5 |
| 20260830163816 | 7 | 0 | 0.0 | 0.0 | 0.00 | 0.00 | 0.00 | 90 | 1030.4 |
| 20260830162704 | 7 | 0 | 0.0 | 0.0 | 0.00 | 0.00 | 0.00 | 90 | 1030.4 |
| 20260830161803 | 7 | 0 | 0.0 | 0.0 | 0.00 | 0.00 | 0.00 | 89 | 1030.5 |
| 20260830160903 | 7 | 0 | 0.0 | 0.0 | 0.00 | 0.00 | 0.00 | 89 | 1030.6 |
| 20260830160003 | 8 | 0 | 0.0 | 0.0 | 0.00 | 0.00 | 0.00 | 88 | 1030.5 |
| 20260830155403 | 8 | 0 | 0.0 | 0.0 | 0.00 | 0.00 | 0.00 | 88 | 1030.5 |
| 20260830154503 | 8 | 0 | 0.0 | 0.0 | 0.00 | 0.00 | 0.00 | 88 | 1030.5 |
| 20260830153604 | 8 | 0 | 0.0 | 0.0 | 0.00 | 0.00 | 0.00 | 88 | 1030.5 |
| 20260830152703 | 8 | 0 | 0.0 | 0.0 | 0.00 | 0.00 | 0.00 | 87 | 1030.5 |
| 20260830151804 | 8 | 0 | 0.0 | 0.0 | 0.00 | 0.00 | 0.00 | 86 | 1030.5 |
| 20260830150903 | 9 | 0 | 0.0 | 0.0 | 0.00 | 0.00 | 0.00 | 85 | 1030.5 |
| 20260830150005 | 9 | 0 | 0.0 | 0.0 | 0.00 | 0.00 | 0.00 | 85 | 1030.5 |
| 20260830145403 | 10 | 0 | 0.0 | 0.0 | 0.00 | 0.00 | 0.00 | 85 | 1030.5 |
| 20260830144505 | 9 | 0 | 0.0 | 0.0 | 0.00 | 0.00 | 0.00 | 87 | 1030.7 |
| 20260830143603 | 9 | 0 | 0.0 | 0.0 | 0.00 | 0.00 | 0.00 | 86 | 1030.6 |
| 20260830142918 | 9 | 0 | 0.0 | 0.0 | 0.00 | 0.00 | 0.00 | 86 | 1030.6 |
| 20260830141803 | 9 | 0 | 0.0 | 0.0 | 0.00 | 0.00 | 0.00 | 86 | 1030.6 |
| 20260830140903 | 9 | 0 | 0.0 | 0.0 | 0.00 | 0.00 | 0.00 | 86 | 1030.5 |
| 20260830140004 | 10 | 0 | 0.0 | 0.0 | 0.00 | 0.00 | 0.00 | 86 | 1030.6 |
| 20260830135404 | 10 | 0 | 0.0 | 0.0 | 0.00 | 0.00 | 0.00 | 86 | 1030.7 |
| 20260830134503 | 10 | 53 | 1.6 | 6.4 | 0.00 | 0.00 | 0.00 | 86 | 1030.7 |
| 20260830133603 | 10 | 53 | 1.6 | 4.8 | 0.00 | 0.00 | 0.00 | 85 | 1030.7 |
| 20260830132918 | 10 | 53 | 0.0 | 4.8 | 0.00 | 0.00 | 0.00 | 85 | 1030.7 |
| 20260830131803 | 10 | 0 | 0.0 | 0.0 | 0.00 | 0.00 | 0.00 | 85 | 1030.6 |
| 20260830130903 | 10 | 0 | 0.0 | 0.0 | 0.00 | 0.00 | 0.00 | 84 | 1030.7 |
| 20260830130003 | 10 | 53 | 0.0 | 3.2 | 0.00 | 0.00 | 0.00 | 84 | 1030.8 |
| 20260830125404 | 10 | 0 | 0.0 | 0.0 | 0.00 | 0.00 | 0.00 | 83 | 1030.7 |
| 20260830124719 | 11 | 0 | 0.0 | 0.0 | 0.00 | 0.00 | 0.00 | 82 | 1030.7 |
| 20260830123604 | 11 | 0 | 0.0 | 0.0 | 0.00 | 0.00 | 0.00 | 82 | 1030.7 |
| 20260830122703 | 11 | 0 | 0.0 | 0.0 | 0.00 | 0.00 | 0.00 | 81 | 1030.6 |
| 20260830121803 | 11 | 53 | 0.0 | 3.2 | 0.00 | 0.00 | 0.00 | 81 | 1030.6 |
| 20260830120903 | 11 | 53 | 0.0 | 3.2 | 0.00 | 0.00 | 0.00 | 81 | 1030.5 |
| 20260830120004 | 11 | 53 | 0.0 | 3.2 | 0.00 | 0.00 | 0.00 | 80 | 1030.3 |
| 20260830115403 | 11 | 53 | 0.0 | 3.2 | 0.00 | 0.00 | 0.00 | 79 | 1030.3 |
| 20260830114504 | 12 | 0 | 0.0 | 0.0 | 0.00 | 0.00 | 0.00 | 78 | 1030.1 |
| 20260830113606 | 12 | 0 | 0.0 | 0.0 | 0.00 | 0.00 | 0.00 | 77 | 1030.1 |
| 20260830112703 | 12 | 0 | 0.0 | 0.0 | 0.00 | 0.00 | 0.00 | 77 | 1030.2 |
| 20260830111804 | 12 | 0 | 0.0 | 0.0 | 0.00 | 0.00 | 0.00 | 76 | 1030.2 |
| 20260830110903 | 13 | 0 | 0.0 | 0.0 | 0.00 | 0.00 | 0.00 | 76 | 1030.2 |
| 20260830110004 | 13 | 0 | 0.0 | 0.0 | 0.00 | 0.00 | 0.00 | 75 | 1030.1 |
| 20260830105403 | 13 | 0 | 0.0 | 0.0 | 0.00 | 0.00 | 0.00 | 75 | 1030.1 |
| 20260830104503 | 13 | 53 | 0.0 | 3.2 | 0.00 | 0.00 | 0.00 | 75 | 1030.0 |
| 20260830103603 | 13 | 55 | 0.0 | 1.6 | 0.00 | 0.00 | 0.00 | 74 | 1030.0 |
| 20260830102703 | 13 | 55 | 0.0 | 1.6 | 0.00 | 0.00 | 0.00 | 74 | 1030.0 |
| 20260830101803 | 13 | 0 | 0.0 | 0.0 | 0.00 | 0.00 | 0.00 | 73 | 1030.0 |
| 20260830101120 | 13 | 0 | 0.0 | 0.0 | 0.00 | 0.00 | 0.00 | 72 | 1029.9 |
| 20260830100219 | 14 | 0 | 0.0 | 0.0 | 0.00 | 0.00 | 0.00 | 72 | 1029.8 |
| 20260830095404 | 14 | 0 | 0.0 | 0.0 | 0.00 | 0.00 | 0.00 | 72 | 1029.7 |
| 20260830094503 | 14 | 0 | 0.0 | 0.0 | 0.00 | 0.00 | 0.00 | 71 | 1029.7 |
| 20260830093603 | 15 | 0 | 0.0 | 0.0 | 0.00 | 0.00 | 0.00 | 70 | 1029.7 |
| 20260830092703 | 15 | 0 | 0.0 | 0.0 | 0.00 | 0.00 | 0.00 | 69 | 1029.6 |
| 20260830092016 | 15 | 0 | 0.0 | 0.0 | 0.00 | 0.00 | 0.00 | 68 | 1029.6 |
| 20260830090904 | 16 | 0 | 0.0 | 0.0 | 0.00 | 0.00 | 0.00 | 66 | 1029.7 |
| 20260830090004 | 16 | 90 | 0.0 | 3.2 | 0.00 | 0.00 | 0.00 | 65 | 1029.6 |
| 20260830085403 | 16 | 90 | 0.0 | 3.2 | 0.00 | 0.00 | 0.00 | 64 | 1029.5 |
| 20260830084717 | 17 | 0 | 0.0 | 0.0 | 0.00 | 0.00 | 0.00 | 61 | 1029.2 |
| 20260830083817 | 17 | 0 | 0.0 | 0.0 | 0.00 | 0.00 | 0.00 | 59 | 1029.1 |
| 20260830082704 | 18 | 0 | 0.0 | 0.0 | 0.00 | 0.00 | 0.00 | 56 | 1028.9 |
| 20260830082020 | 18 | 0 | 0.0 | 0.0 | 0.00 | 0.00 | 0.00 | 53 | 1028.6 |
| 20260830080904 | 20 | 0 | 0.0 | 0.0 | 0.00 | 0.00 | 0.00 | 48 | 1028.5 |
| 20260830080004 | 20 | 0 | 0.0 | 0.0 | 0.00 | 0.00 | 0.00 | 45 | 1028.3 |
| 20260830075404 | 20 | 0 | 0.0 | 0.0 | 0.00 | 0.00 | 0.00 | 44 | 1028.3 |
| 20260830074503 | 21 | 90 | 0.0 | 1.6 | 0.00 | 0.00 | 0.00 | 42 | 1028.3 |
| 20260830073603 | 21 | 91 | 0.0 | 3.2 | 0.00 | 0.00 | 0.00 | 41 | 1028.3 |
| 20260830072703 | 22 | 92 | 1.6 | 4.8 | 0.00 | 0.00 | 0.00 | 41 | 1028.2 |
| 20260830071804 | 22 | 91 | 3.2 | 9.7 | 0.00 | 0.00 | 0.00 | 39 | 1028.3 |
| 20260830070903 | 23 | 91 | 4.8 | 9.7 | 0.00 | 0.00 | 0.00 | 39 | 1028.2 |
| 20260830070004 | 23 | 82 | 4.8 | 8.0 | 0.00 | 0.00 | 0.00 | 38 | 1027.9 |
| 20260830065403 | 23 | 83 | 4.8 | 8.0 | 0.00 | 0.00 | 0.00 | 38 | 1028.0 |
| 20260830064505 | 23 | 86 | 6.4 | 11.3 | 0.00 | 0.00 | 0.00 | 37 | 1028.0 |
| 20260830063604 | 23 | 85 | 6.4 | 12.9 | 0.00 | 0.00 | 0.00 | 37 | 1027.8 |
| 20260830062703 | 23 | 84 | 6.4 | 12.9 | 0.00 | 0.00 | 0.00 | 37 | 1027.9 |
| 20260830061804 | 23 | 93 | 6.4 | 12.9 | 0.00 | 0.00 | 0.00 | 38 | 1027.8 |
| 20260830060903 | 23 | 79 | 3.2 | 11.3 | 0.00 | 0.00 | 0.00 | 38 | 1027.8 |
| 20260830060003 | 23 | 100 | 4.8 | 11.3 | 0.00 | 0.00 | 0.00 | 37 | 1027.9 |
| 20260830055403 | 23 | 117 | 3.2 | 11.3 | 0.00 | 0.00 | 0.00 | 37 | 1027.9 |
| 20260830054716 | 23 | 79 | 4.8 | 16.1 | 0.00 | 0.00 | 0.00 | 36 | 1027.9 |